Weather History for Cape Girardeau, MO

Change the Weather History Date:

Saturday, November 16, 2013

  Actual Average Record
Temperature  
Mean Temperature 58 °F 47 °F  
Max Temperature 67 °F 57 °F 77 °F (1965)
Min Temperature 49 °F 36 °F 18 °F (1997)
Degree Days  
Heating Degree Days 7 18  
Month to date heating degree days 280 245  
Since 1 July heating degree days 547 548  
Cooling Degree Days 0 0  
Month to date cooling degree days 0 0  
Year to date cooling degree days 1441 1451  
Growing Degree Days 8 (Base 50)    
Moisture  
Dew Point 56 °F    
Average Humidity 87    
Maximum Humidity 96    
Minimum Humidity 78    
Precipitation  
Precipitation 0.11 in 0.16 in 2.03 in (1987)
Month to date precipitation 0.34 2.24  
Year to date precipitation 33.21 40.36  
Sea Level Pressure  
Sea Level Pressure 29.88 in    
Wind  
Wind Speed 13 mph (South)    
Max Wind Speed 28 mph    
Max Gust Speed 36 mph    
Visibility 9 miles    
Events Rain , Thunderstorm    
T = Trace of Precipitation, MM = Missing Value Source: NWS Daily Summary

Daily Weather History Graph

Daily Weather History Graph

Search for Another Location

Airport:

Trip Planner

Search our weather history database for the weather conditions in past years. The results will help you decide how hot, cold, wet, or windy it might be!

Date:

Astronomy

Nov. 16, 2013 Rise Set
Actual Time 6:38 AM CST 4:47 PM CST
Civil Twilight 6:10 AM CST 5:15 PM CST
Nautical Twilight 5:39 AM CST 5:46 PM CST
Astronomical Twilight 5:08 AM CST 6:17 PM CST
Moon 4:21 PM CST (11/16) 5:36 AM CST (11/16)
Length of Visible Light 11h 04m
Length of Day
10h 08m
Waxing Gibbous, 99% of the Moon is Illuminated
Nov 16
Waxing Gibbous
Nov 17
Full
Nov 25
Last Quarter
Dec 2
New
Dec 9
First Quarter

Hourly Weather History & Observations

Time (CST) Temp. Dew Point Humidity Pressure Visibility Wind Dir Wind Speed Gust Speed Precip Events Conditions
12:53 AM 51.1 °F 48.0 °F 89% 30.01 in 10.0 mi South 10.4 mph - N/A   Overcast
1:40 AM 51.8 °F 48.2 °F 88% 30.00 in 9.0 mi South 6.9 mph - N/A   Overcast
1:53 AM 51.1 °F 48.9 °F 92% 29.99 in 8.0 mi SSE 5.8 mph - N/A   Overcast
2:53 AM 51.1 °F 48.9 °F 92% 29.98 in 6.0 mi South 11.5 mph - N/A   Overcast
3:53 AM 52.0 °F 48.9 °F 89% 29.99 in 9.0 mi South 12.7 mph - N/A   Overcast
4:53 AM 52.0 °F 50.0 °F 93% 29.99 in 7.0 mi South 8.1 mph - N/A   Overcast
5:53 AM 52.0 °F 50.0 °F 93% 29.99 in 8.0 mi SSW 6.9 mph - N/A   Overcast
6:53 AM 51.1 °F 48.9 °F 92% 29.98 in 9.0 mi SE 4.6 mph - N/A   Overcast
7:21 AM 51.8 °F 50.0 °F 94% 29.99 in 7.0 mi South 3.5 mph - N/A   Overcast
7:53 AM 52.0 °F 50.0 °F 93% 29.99 in 8.0 mi SSE 3.5 mph - N/A   Overcast
8:53 AM 55.0 °F 51.1 °F 86% 29.98 in 10.0 mi South 8.1 mph - N/A   Partly Cloudy
9:53 AM 57.9 °F 52.0 °F 81% 29.96 in 10.0 mi South 16.1 mph - N/A   Partly Cloudy
10:05 AM 57.2 °F 51.8 °F 82% 29.96 in 10.0 mi South 17.3 mph - N/A   Mostly Cloudy
10:31 AM 57.2 °F 53.6 °F 88% 29.96 in 10.0 mi South 10.4 mph 20.7 mph N/A   Overcast
10:53 AM 57.9 °F 53.1 °F 84% 29.96 in 10.0 mi South 9.2 mph - N/A   Overcast
11:22 AM 57.2 °F 55.4 °F 94% 29.95 in 8.0 mi South 12.7 mph - N/A   Overcast
11:53 AM 59.0 °F 55.9 °F 90% 29.94 in 6.0 mi SSW 10.4 mph - N/A   Overcast
3:53 PM 64.0 °F 57.9 °F 80% 29.84 in 10.0 mi South 13.8 mph 19.6 mph N/A   Overcast
4:53 PM 64.0 °F 59.0 °F 84% 29.81 in 10.0 mi South 16.1 mph - N/A   Overcast
5:53 PM 64.0 °F 59.0 °F 84% 29.80 in 10.0 mi SSE 12.7 mph - 0.00 in   Overcast
6:41 PM 64.4 °F 59.0 °F 83% 29.81 in 10.0 mi South 15.0 mph - N/A   Overcast
6:53 PM 64.0 °F 60.1 °F 87% 29.81 in 10.0 mi South 12.7 mph - N/A   Overcast
7:53 PM 64.0 °F 60.1 °F 87% 29.79 in 10.0 mi South 17.3 mph 25.3 mph 0.00 in   Overcast
8:42 PM 64.4 °F 60.8 °F 88% 29.79 in 10.0 mi South 16.1 mph 27.6 mph 0.00 in Rain Light Rain
8:51 PM 64.4 °F 60.8 °F 88% 29.80 in 10.0 mi South 16.1 mph 25.3 mph 0.00 in   Overcast
8:53 PM 64.0 °F 61.0 °F 90% 29.79 in 10.0 mi South 15.0 mph 24.2 mph 0.00 in   Overcast
9:17 PM 64.4 °F 60.8 °F 88% 29.77 in 9.0 mi South 18.4 mph 26.5 mph 0.00 in Rain , Thunderstorm Light Rain
9:32 PM 64.4 °F 60.8 °F 88% 29.77 in 10.0 mi South 19.6 mph 26.5 mph 0.00 in   Overcast
9:39 PM 64.4 °F 60.8 °F 88% 29.78 in 10.0 mi South 18.4 mph 26.5 mph 0.00 in Thunderstorm Overcast
9:53 PM 64.0 °F 62.1 °F 93% 29.76 in 3.0 mi South 27.6 mph 35.7 mph 0.04 in Rain , Thunderstorm Heavy Thunderstorms and Rain
10:01 PM 64.4 °F 62.6 °F 94% 29.77 in 2.5 mi South 20.7 mph 35.7 mph 0.03 in Rain , Thunderstorm Light Thunderstorms and Rain
10:05 PM 64.4 °F 62.6 °F 94% 29.78 in 4.0 mi South 20.7 mph - 0.03 in Rain Light Rain
10:53 PM 64.9 °F 62.1 °F 90% 29.75 in 10.0 mi South 20.7 mph 32.2 mph 0.03 in Rain Light Rain
11:04 PM 64.4 °F 62.6 °F 94% 29.75 in 7.0 mi South 21.9 mph 29.9 mph 0.01 in Rain Light Rain
11:53 PM 66.9 °F 62.1 °F 84% 29.72 in 10.0 mi South 23.0 mph 33.4 mph 0.01 in   Overcast